DW1653 Weather Reports


Display with metric or nautical units.
time (UTC)temp
F
wind
direction
speed
MPH
gust
MPH
rain 1hr
in
rain 24hr
in
rain mn
in
humidity
%
barometer
mb
20260508121324 51 262 2.0 7.0 0.00 0.00 0.00 72 1014.0
20260508120819 51 301 4.0 8.0 0.00 0.00 0.00 73 1014.1
20260508120330 50 294 3.0 9.0 0.00 0.00 0.00 73 1014.2
20260508115821 50 288 5.0 9.0 0.00 0.00 0.00 74 1014.1
20260508115353 50 278 2.0 6.0 0.00 0.00 0.00 75 1014.0
20260508114823 50 301 2.0 8.0 0.00 0.00 0.00 75 1013.9
20260508114354 49 276 4.0 8.0 0.00 0.00 0.00 76 1013.9
20260508113844 49 253 4.0 7.0 0.00 0.00 0.00 77 1013.9
20260508113334 49 355 2.0 4.0 0.00 0.00 0.00 78 1013.8
20260508112824 48 290 1.0 8.0 0.00 0.00 0.00 77 1013.8
20260508112316 48 283 4.0 7.0 0.00 0.00 0.00 78 1013.7
20260508111827 48 269 3.0 5.0 0.00 0.00 0.00 78 1013.6
20260508111322 48 291 2.0 5.0 0.00 0.00 0.00 78 1013.5
20260508110834 47 276 2.0 5.0 0.00 0.00 0.00 78 1013.5
20260508110346 47 286 1.0 3.0 0.00 0.00 0.00 78 1013.4
20260508105816 47 271 2.0 3.0 0.00 0.00 0.00 78 1013.4
20260508105328 47 267 1.0 4.0 0.00 0.00 0.00 78 1013.3
20260508104819 47 275 2.0 4.0 0.00 0.00 0.00 78 1013.4
20260508104330 47 272 0.0 2.0 0.00 0.00 0.00 77 1013.3
20260508103821 47 278 0.0 3.0 0.00 0.00 0.00 77 1013.3
20260508103333 47 277 1.0 3.0 0.00 0.00 0.00 76 1013.2
20260508102827 47 288 1.0 2.0 0.00 0.00 0.00 76 1013.1
20260508102323 47 288 0.0 1.0 0.00 0.00 0.00 76 1013.1
20260508101834 47 306 0.0 1.0 0.00 0.00 0.00 76 1013.1
20260508101325 47 316 1.0 2.0 0.00 0.00 0.00 75 1013.0
20260508100816 47 325 1.0 3.0 0.00 0.00 0.00 75 1013.0
20260508100327 47 284 2.0 3.0 0.00 0.00 0.00 75 1013.0
20260508095819 48 296 0.0 3.0 0.00 0.00 0.00 74 1012.9
20260508095312 48 298 1.0 3.0 0.00 0.00 0.00 74 1012.8
20260508094825 48 360 1.0 3.0 0.00 0.00 0.00 73 1012.9
20260508094321 48 18 1.0 5.0 0.00 0.00 0.00 73 1012.7
20260508093832 48 283 2.0 8.0 0.00 0.00 0.00 72 1012.8
20260508093323 49 309 1.0 8.0 0.00 0.00 0.00 72 1012.7
20260508092815 49 304 1.0 4.0 0.00 0.00 0.00 72 1012.7
20260508092326 49 305 2.0 4.0 0.00 0.00 0.00 72 1012.5
20260508091818 49 26 2.0 7.0 0.00 0.00 0.00 71 1012.5
20260508091333 49 342 2.0 5.0 0.00 0.00 0.00 71 1012.4
20260508090824 49 315 3.0 7.0 0.00 0.00 0.00 71 1012.3
20260508090339 49 350 5.0 8.0 0.00 0.00 0.00 72 1012.2
20260508085829 49 355 4.0 8.0 0.00 0.00 0.00 72 1012.0
20260508085341 49 335 4.0 8.0 0.00 0.00 0.00 73 1012.0
20260508084812 50 321 4.0 8.0 0.00 0.00 0.00 73 1011.9
20260508084325 50 306 4.0 8.0 0.00 0.00 0.00 74 1011.9
20260508083817 50 340 2.0 9.0 0.00 0.01 0.00 74 1011.8
20260508083348 50 324 4.0 9.0 0.00 0.01 0.00 74 1011.7
20260508082818 50 323 3.0 9.0 0.00 0.01 0.00 75 1011.6
20260508082330 50 300 3.0 8.0 0.00 0.01 0.00 75 1011.5
20260508081822 50 291 2.0 4.0 0.00 0.01 0.00 76 1011.5
20260508081317 51 275 2.0 5.0 0.00 0.01 0.00 76 1011.2
20260508080828 51 338 2.0 6.0 0.00 0.01 0.00 76 1010.9
20260508080319 51 336 2.0 6.0 0.00 0.01 0.00 77 1010.7
20260508075831 51 342 3.0 6.0 0.00 0.01 0.00 78 1010.6
20260508075322 51 344 4.0 9.0 0.00 0.01 0.00 79 1010.4
20260508074813 51 313 5.0 9.0 0.00 0.01 0.00 80 1010.4
20260508074328 51 36 3.0 8.0 0.00 0.01 0.00 81 1010.1
20260508073819 51 331 5.0 8.0 0.00 0.08 0.00 82 1010.1
20260508073315 51 333 3.0 7.0 0.00 0.08 0.00 83 1009.9
20260508072826 51 17 3.0 7.0 0.00 0.08 0.00 84 1009.9
20260508072338 50 326 2.0 8.0 0.00 0.08 0.00 85 1010.1
20260508071828 50 12 3.0 9.0 0.00 0.08 0.00 85 1010.0
20260508071320 50 322 4.0 9.0 0.00 0.08 0.00 86 1009.9
20260508070814 50 323 3.0 9.0 0.00 0.08 0.00 86 1009.8
20260508070325 50 335 2.0 6.0 0.00 0.08 0.00 86 1010.0
20260508065817 50 322 2.0 11.0 0.00 0.08 0.00 86 1009.9
20260508065328 50 306 3.0 11.0 0.00 0.08 0.00 86 1010.0
20260508064824 50 288 1.0 7.0 0.00 0.08 0.00 86 1009.9
20260508064317 50 272 3.0 7.0 0.00 0.08 0.00 86 1009.8
20260508063828 50 279 3.0 6.0 0.00 0.09 0.00 86 1009.7
20260508063320 50 253 4.0 6.0 0.00 0.09 0.00 86 1009.7
20260508062830 50 288 2.0 7.0 0.00 0.09 0.00 86 1009.6
20260508062322 50 275 3.0 7.0 0.00 0.09 0.00 86 1009.5
20260508061814 50 274 3.0 7.0 0.00 0.09 0.00 86 1009.5
20260508061329 50 245 4.0 7.0 0.00 0.09 0.00 86 1009.5
20260508060824 50 269 3.0 7.0 0.00 0.09 0.00 86 1009.6
20260508060317 50 265 3.0 7.0 0.00 0.09 0.00 86 1009.6
20260508055827 50 265 4.0 8.0 0.00 0.09 0.00 86 1009.6
20260508055319 50 261 4.0 8.0 0.00 0.09 0.00 86 1009.6
20260508054830 50 243 4.0 8.0 0.00 0.09 0.00 86 1009.6
20260508054321 50 247 3.0 6.0 0.00 0.09 0.00 85 1009.5
20260508053833 50 270 3.0 6.0 0.00 0.09 0.00 85 1009.5
20260508053344 50 273 2.0 8.0 0.00 0.09 0.00 85 1009.7
20260508052815 50 287 4.0 8.0 0.00 0.09 0.00 85 1009.7
20260508052347 50 238 4.0 8.0 0.00 0.09 0.00 85 1009.8
20260508051820 50 263 4.0 6.0 0.00 0.09 0.00 85 1009.8
20260508051312 50 263 4.0 7.0 0.00 0.09 0.00 85 1009.8
20260508050846 50 260 4.0 8.0 0.00 0.09 0.00 85 1009.7
20260508050337 50 263 3.0 8.0 0.00 0.09 0.00 85 1009.6
20260508045826 51 269 3.0 7.0 0.00 0.09 0.00 85 1009.7
20260508045318 51 237 3.0 6.0 0.00 0.09 0.00 85 1009.7
20260508044830 51 246 2.0 7.0 0.00 0.09 0.00 85 1009.6
20260508044322 51 303 4.0 7.0 0.00 0.09 0.00 84 1009.5
20260508043834 51 225 2.0 8.0 0.00 0.09 0.00 84 1009.6
20260508043328 51 238 5.0 8.0 0.00 0.09 0.00 84 1009.5
20260508042823 51 256 3.0 6.0 0.00 0.09 0.00 84 1009.6
20260508042315 51 265 3.0 6.0 0.00 0.09 0.00 84 1009.7
20260508041826 51 277 3.0 5.0 0.00 0.09 0.00 84 1009.7
20260508041317 51 263 3.0 5.0 0.00 0.09 0.00 84 1009.7
20260508040828 51 213 2.0 5.0 0.00 0.09 0.00 83 1009.7
20260508040318 51 222 2.0 5.0 0.00 0.09 0.00 83 1009.6
20260508035829 51 300 1.0 4.0 0.00 0.09 0.00 83 1009.5
20260508035341 51 205 1.0 4.0 0.00 0.09 0.00 83 1009.5
20260508034330 51 267 1.0 6.0 0.00 0.09 0.00 82 1009.7
20260508033841 52 281 2.0 4.0 0.00 0.09 0.09 82 1009.6
20260508033352 52 244 1.0 4.0 0.00 0.09 0.09 82 1009.6
20260508032822 52 239 1.0 3.0 0.00 0.09 0.09 81 1009.6
20260508032313 52 203 1.0 4.0 0.00 0.09 0.09 81 1009.5
20260508031848 52 261 2.0 4.0 0.00 0.09 0.09 81 1009.7
20260508031339 52 257 1.0 3.0 0.00 0.09 0.09 81 1009.7
20260508030829 52 263 1.0 5.0 0.00 0.09 0.09 80 1009.7
20260508030323 52 263 2.0 5.0 0.00 0.09 0.09 80 1009.8
20260508025819 52 267 2.0 4.0 0.00 0.09 0.09 80 1009.8
20260508025331 52 240 1.0 6.0 0.00 0.09 0.09 79 1009.8
20260508024823 53 229 2.0 6.0 0.00 0.09 0.09 79 1009.9
20260508024334 53 228 1.0 5.0 0.00 0.09 0.09 79 1009.8
20260508023825 53 255 1.0 5.0 0.00 0.09 0.09 78 1009.8
20260508023316 53 210 1.0 4.0 0.00 0.09 0.09 78 1009.9
20260508022847 53 218 2.0 6.0 0.00 0.09 0.09 78 1010.0
20260508022338 53 213 2.0 6.0 0.00 0.09 0.09 77 1010.0
20260508021829 53 234 1.0 3.0 0.00 0.09 0.09 76 1010.0
20260508021342 54 307 1.0 7.0 0.00 0.09 0.09 76 1010.0
20260508020819 54 228 3.0 7.0 0.00 0.09 0.09 76 1009.9
20260508020331 54 238 1.0 7.0 0.00 0.09 0.09 75 1009.8
20260508015822 54 195 1.0 7.0 0.00 0.09 0.09 74 1009.9
20260508015333 54 223 1.0 8.0 0.00 0.09 0.09 74 1009.8
20260508014825 54 186 2.0 8.0 0.00 0.09 0.09 74 1009.7
20260508014317 54 300 3.0 7.0 0.00 0.09 0.09 73 1009.7
20260508013827 54 245 3.0 7.0 0.00 0.09 0.09 73 1009.6
20260508013342 54 184 2.0 7.0 0.00 0.09 0.09 73 1009.6
20260508012832 54 254 3.0 7.0 0.00 0.09 0.09 72 1009.7
20260508012324 54 219 3.0 9.0 0.00 0.09 0.09 72 1009.7
20260508011819 54 219 3.0 9.0 0.00 0.09 0.09 72 1009.7
20260508011330 54 241 3.0 7.0 0.00 0.09 0.09 71 1009.6
20260508010822 54 219 3.0 7.0 0.00 0.09 0.09 71 1009.6
20260508010334 54 231 2.0 8.0 0.00 0.09 0.09 71 1009.5
20260508005825 55 232 3.0 7.0 0.00 0.09 0.09 71 1009.5
20260508005317 55 240 4.0 8.0 0.00 0.09 0.09 71 1009.4
20260508004827 55 194 3.0 8.0 0.00 0.09 0.09 70 1009.4
20260508004319 55 133 4.0 8.0 0.00 0.09 0.09 70 1009.3
20260508003850 55 213 3.0 7.0 0.00 0.09 0.09 69 1009.2
20260508003325 55 182 4.0 8.0 0.00 0.09 0.09 69 1009.2
20260508002855 55 200 3.0 10.0 0.00 0.09 0.09 68 1009.1
20260508002346 55 217 5.0 10.0 0.00 0.09 0.09 68 1009.0
20260508001817 56 218 3.0 9.0 0.00 0.09 0.09 67 1009.1
20260508001327 56 213 3.0 12.0 0.00 0.09 0.09 66 1009.1
20260508000817 56 182 5.0 12.0 0.00 0.09 0.09 66 1009.1
20260508000329 56 192 4.0 9.0 0.00 0.09 0.09 64 1009.1
20260507235820 56 202 4.0 11.0 0.00 0.09 0.09 62 1009.1
20260507235332 56 182 5.0 14.0 0.00 0.09 0.09 62 1009.1
20260507234827 56 200 7.0 15.0 0.00 0.09 0.09 63 1008.9
20260507234318 56 225 4.0 9.0 0.00 0.09 0.09 65 1008.9
20260507233829 57 205 4.0 11.0 0.00 0.09 0.09 64 1008.8
20260507233321 57 212 5.0 11.0 0.00 0.09 0.09 64 1008.6
20260507232811 57 186 5.0 11.0 0.00 0.09 0.09 62 1008.6
20260507232346 57 138 4.0 10.0 0.00 0.09 0.09 60 1008.5
20260507231815 58 200 5.0 11.0 0.00 0.09 0.09 59 1008.6
20260507231346 58 138 3.0 12.0 0.00 0.09 0.09 59 1008.5
20260507230820 58 188 6.0 12.0 0.00 0.09 0.09 58 1008.4
20260507230315 59 207 4.0 11.0 0.00 0.09 0.09 58 1008.3
20260507225826 59 180 5.0 12.0 0.00 0.09 0.09 57 1008.3
20260507225338 59 171 3.0 11.0 0.00 0.09 0.09 57 1008.5
20260507224828 59 184 7.0 12.0 0.00 0.09 0.09 56 1008.5
20260507224320 60 186 5.0 13.0 0.00 0.09 0.09 56 1008.5
20260507223831 60 233 6.0 15.0 0.00 0.09 0.09 54 1008.6
20260507223323 61 233 8.0 15.0 0.00 0.09 0.09 53 1008.5
20260507222813 61 210 7.0 13.0 0.00 0.09 0.09 52 1008.5
20260507222328 62 203 6.0 12.0 0.00 0.09 0.09 51 1008.5
20260507221839 62 153 3.0 11.0 0.00 0.09 0.09 51 1008.5
20260507221314 63 190 4.0 9.0 0.00 0.09 0.09 49 1008.5
20260507220826 63 202 3.0 7.0 0.00 0.09 0.09 50 1008.5
20260507220317 63 211 2.0 8.0 0.00 0.09 0.09 50 1008.4
20260507215849 63 148 3.0 8.0 0.00 0.09 0.09 49 1008.5
20260507215323 62 155 3.0 12.0 0.00 0.09 0.09 47 1008.5
20260507214837 62 180 6.0 12.0 0.00 0.09 0.09 46 1008.6
20260507213830 62 157 6.0 13.0 0.00 0.09 0.09 45 1008.5
20260507213321 62 233 5.0 13.0 0.00 0.09 0.09 45 1008.5
20260507212815 62 189 4.0 9.0 0.00 0.09 0.09 48 1008.4
20260507212347 62 150 4.0 9.0 0.00 0.09 0.09 46 1008.2
20260507211821 63 173 6.0 12.0 0.00 0.09 0.09 45 1008.2
20260507211316 62 142 6.0 12.0 0.00 0.09 0.09 43 1008.2
20260507210826 63 153 5.0 12.0 0.00 0.09 0.09 44 1008.3
20260507210318 63 196 5.0 10.0 0.00 0.09 0.09 45 1008.3
20260507205830 63 161 5.0 10.0 0.00 0.09 0.09 45 1008.2
20260507205321 63 146 4.0 10.0 0.00 0.09 0.09 43 1008.2
20260507204833 64 186 4.0 9.0 0.00 0.09 0.09 43 1008.1
20260507204324 64 189 4.0 9.0 0.00 0.09 0.09 43 1008.2
20260507203820 64 155 4.0 11.0 0.00 0.09 0.09 45 1008.1
20260507203333 63 146 4.0 11.0 0.00 0.09 0.09 46 1008.1
20260507202824 64 167 4.0 8.0 0.00 0.09 0.09 46 1008.1
20260507202315 64 194 3.0 8.0 0.00 0.09 0.09 47 1008.2
20260507201826 63 170 4.0 8.0 0.00 0.09 0.09 45 1008.3
20260507201321 63 140 3.0 11.0 0.00 0.09 0.09 45 1008.2
20260507200815 63 136 6.0 11.0 0.00 0.09 0.09 45 1008.3
20260507200326 63 150 5.0 10.0 0.00 0.09 0.09 46 1008.4
20260507195822 63 169 4.0 10.0 0.00 0.09 0.09 46 1008.4
20260507195333 63 155 3.0 9.0 0.00 0.09 0.09 46 1008.3
20260507194824 63 182 4.0 9.0 0.00 0.09 0.09 51 1008.4
20260507194315 63 125 5.0 9.0 0.00 0.09 0.09 48 1008.6
20260507193829 63 146 6.0 9.0 0.00 0.09 0.09 43 1008.6
20260507193340 63 120 4.0 8.0 0.00 0.09 0.09 43 1008.7
20260507192830 64 139 3.0 7.0 0.00 0.09 0.09 43 1008.8
20260507192322 63 120 4.0 7.0 0.00 0.09 0.09 47 1008.9
20260507191834 63 134 2.0 10.0 0.00 0.09 0.09 49 1008.7
20260507191345 63 102 4.0 10.0 0.00 0.09 0.09 49 1008.6
20260507190819 63 186 2.0 8.0 0.00 0.09 0.09 49 1008.6
20260507190330 63 126 4.0 9.0 0.00 0.09 0.09 48 1008.7
20260507185822 63 117 3.0 9.0 0.00 0.09 0.09 49 1008.8
20260507185334 63 149 3.0 9.0 0.00 0.09 0.09 50 1009.1
20260507184825 63 117 3.0 8.0 0.00 0.09 0.09 51 1009.3
20260507184316 63 134 3.0 9.0 0.00 0.09 0.09 52 1009.1
20260507183323 62 128 7.0 10.0 0.00 0.09 0.09 49 1009.2
20260507182818 62 144 4.0 9.0 0.00 0.09 0.09 51 1009.1
20260507182330 62 109 2.0 8.0 0.00 0.09 0.09 52 1009.4
20260507181820 62 134 5.0 8.0 0.00 0.09 0.09 53 1009.4
20260507181332 61 160 5.0 8.0 0.00 0.09 0.09 50 1009.4
20260507180824 62 109 4.0 8.0 0.00 0.09 0.09 52 1009.3
20260507180334 62 205 3.0 8.0 0.00 0.09 0.09 55 1009.5
20260507175846 63 127 3.0 10.0 0.00 0.09 0.09 56 1009.5
20260507175337 63 142 5.0 10.0 0.00 0.09 0.09 55 1009.4
20260507174827 62 111 4.0 9.0 0.00 0.09 0.09 54 1009.6
20260507174321 62 141 2.0 9.0 0.00 0.09 0.09 57 1009.7
20260507173817 61 137 2.0 8.0 0.00 0.09 0.09 55 1009.7
20260507173327 62 143 4.0 8.0 0.00 0.09 0.09 57 1009.9
20260507172839 62 159 5.0 9.0 0.00 0.09 0.09 54 1010.0
20260507172332 62 121 3.0 7.0 0.00 0.09 0.09 56 1010.1
20260507171823 62 159 1.0 7.0 0.00 0.09 0.09 52 1010.1
20260507171318 63 111 2.0 7.0 0.00 0.09 0.09 55 1010.2
20260507170829 62 101 2.0 8.0 0.00 0.09 0.09 56 1010.1
20260507170341 62 144 3.0 8.0 0.00 0.09 0.09 56 1010.0
20260507165830 62 61 2.0 7.0 0.00 0.09 0.09 56 1010.1
20260507165321 62 38 2.0 8.0 0.00 0.09 0.09 57 1010.0
20260507164840 61 63 5.0 8.0 0.00 0.09 0.09 54 1010.2
20260507164350 61 76 3.0 9.0 0.00 0.09 0.09 54 1010.3
20260507163821 61 72 4.0 9.0 0.00 0.09 0.09 54 1010.3
20260507163333 61 39 3.0 9.0 0.00 0.09 0.09 58 1010.5
20260507162844 61 86 2.0 9.0 0.00 0.09 0.09 60 1010.5
20260507162354 61 355 4.0 7.0 0.00 0.09 0.09 58 1010.5
20260507161824 62 118 1.0 6.0 0.00 0.09 0.09 55 1010.4
20260507161316 62 56 2.0 6.0 0.00 0.09 0.09 57 1010.6
20260507160827 62 58 2.0 5.0 0.00 0.09 0.09 55 1010.7
20260507160318 62 21 2.0 6.0 0.00 0.09 0.09 56 1010.9
20260507155816 63 31 2.0 9.0 0.00 0.09 0.09 58 1010.7
20260507155327 63 96 4.0 9.0 0.00 0.09 0.09 54 1010.7
20260507154818 63 157 2.0 10.0 0.00 0.09 0.09 52 1011.0
20260507154329 63 302 4.0 10.0 0.00 0.09 0.09 51 1011.1
20260507153824 62 300 3.0 9.0 0.00 0.09 0.09 53 1011.1
20260507153336 61 24 3.0 7.0 0.00 0.09 0.09 55 1011.2
20260507152826 61 53 3.0 8.0 0.00 0.09 0.09 53 1011.3
20260507152338 61 30 5.0 10.0 0.00 0.09 0.09 56 1011.5
20260507151827 60 12 5.0 10.0 0.00 0.09 0.09 59 1011.5
20260507151319 59 333 3.0 12.0 0.00 0.09 0.09 62 1011.6
20260507150814 59 5 5.0 14.0 0.00 0.09 0.09 63 1011.6
20260507150326 59 324 7.0 12.0 0.00 0.09 0.09 65 1011.6
20260507145820 58 19 5.0 9.0 0.00 0.09 0.09 68 1011.6
20260507144820 57 351 4.0 7.0 0.00 0.09 0.09 70 1011.7
20260507144331 57 15 3.0 9.0 0.00 0.09 0.09 70 1011.7
20260507143823 56 336 4.0 10.0 0.00 0.09 0.09 71 1011.7
20260507143315 56 292 3.0 10.0 0.00 0.09 0.09 71 1011.6
20260507142825 56 336 6.0 10.0 0.00 0.09 0.09 72 1011.6
20260507142341 55 350 5.0 10.0 0.00 0.09 0.09 73 1011.6
20260507141832 55 340 2.0 8.0 0.00 0.09 0.09 74 1011.6
20260507141323 55 355 3.0 11.0 0.00 0.09 0.09 74 1011.6
20260507140833 54 343 5.0 11.0 0.00 0.09 0.09 75 1011.7
20260507140324 54 323 4.0 12.0 0.00 0.09 0.09 75 1011.7
20260507135836 54 321 5.0 13.0 0.00 0.09 0.09 75 1011.7
20260507135326 54 336 3.0 13.0 0.00 0.09 0.09 76 1011.5
20260507134819 54 334 4.0 11.0 0.00 0.09 0.09 76 1011.5
20260507134329 54 315 5.0 11.0 0.00 0.09 0.09 77 1011.5
20260507133827 54 331 4.0 11.0 0.00 0.09 0.09 78 1011.3
20260507133318 53 342 4.0 11.0 0.00 0.09 0.09 78 1011.3
20260507132830 53 340 3.0 11.0 0.00 0.09 0.09 79 1011.6
20260507132322 53 311 5.0 11.0 0.00 0.09 0.09 79 1011.6
20260507131852 53 309 3.0 11.0 0.00 0.09 0.09 80 1011.7
20260507131322 53 360 4.0 11.0 0.00 0.09 0.09 81 1011.8
20260507130816 53 275 3.0 11.0 0.00 0.09 0.09 82 1011.6
20260507130331 53 360 5.0 9.0 0.00 0.09 0.09 83 1011.4
20260507125821 53 315 3.0 11.0 0.00 0.09 0.09 83 1011.5
20260507125317 52 17 5.0 11.0 0.00 0.09 0.09 83 1011.6
20260507124828 52 22 6.0 11.0 0.00 0.09 0.09 84 1011.5
20260507124323 52 355 6.0 10.0 0.00 0.09 0.09 84 1011.5
20260507123816 52 9 4.0 10.0 0.00 0.09 0.09 85 1011.6
20260507123328 52 323 4.0 10.0 0.00 0.09 0.09 86 1011.6
20260507122822 52 323 4.0 11.0 0.00 0.09 0.09 86 1011.8
20260507122334 52 306 6.0 11.0 0.00 0.09 0.09 86 1011.7